�������l�o���
Date,Time,MP-1(��Sv/h),MP-2(��Sv/h),MP-3(��Sv/h),MP-4(��Sv/h),MP-5(��Sv/h),MP-6(��Sv/h),MP-7(��Sv/h),MP-8(��Sv/h),����,����(m/s),���J
2022/10/13,00:00,0.562,0.810,0.519,1.012,0.707,0.334,0.583,0.551,�k�k��,5.3,��
2022/10/13,00:10,0.561,0.810,0.520,1.013,0.708,0.334,0.582,0.550,�k�k��,6.1,��
2022/10/13,00:20,0.560,0.810,0.521,1.012,0.709,0.334,0.581,0.550,�k�k��,5.3,��
2022/10/13,00:30,0.559,0.810,0.521,1.011,0.707,0.333,0.581,0.552,�k�k��,5.5,��
2022/10/13,00:40,0.562,0.810,0.521,1.015,0.708,0.333,0.583,0.551,�k�k��,6.6,��
2022/10/13,00:50,0.560,0.810,0.520,1.010,0.708,0.333,0.583,0.550,�k�k��,6.1,��
2022/10/13,01:00,0.563,0.811,0.520,1.011,0.709,0.333,0.581,0.549,�k�k��,6.1,��
2022/10/13,01:10,0.562,0.811,0.520,1.013,0.708,0.333,0.583,0.551,�k�k��,5.8,��
2022/10/13,01:20,0.561,0.812,0.521,1.011,0.706,0.332,0.582,0.550,�k�k��,6.5,��
2022/10/13,01:30,0.562,0.813,0.521,1.009,0.708,0.333,0.582,0.550,�k�k��,6.6,��
2022/10/13,01:40,0.560,0.811,0.520,1.011,0.708,0.333,0.580,0.551,�k�k��,6.5,��
2022/10/13,01:50,0.561,0.809,0.520,1.012,0.708,0.333,0.582,0.551,�k�k��,6.8,��
2022/10/13,02:00,0.561,0.809,0.520,1.010,0.708,0.334,0.582,0.550,�k�k��,6.7,��
2022/10/13,02:10,0.562,0.809,0.520,1.010,0.710,0.333,0.583,0.553,�k�k��,7.1,��
2022/10/13,02:20,0.561,0.811,0.520,1.011,0.708,0.335,0.585,0.550,�k��,6.0,��
2022/10/13,02:30,0.559,0.809,0.521,1.011,0.708,0.333,0.580,0.551,�k��,5.7,��
2022/10/13,02:40,0.560,0.809,0.522,1.012,0.707,0.334,0.581,0.552,�k��,5.8,��
2022/10/13,02:50,0.561,0.811,0.518,1.010,0.708,0.333,0.583,0.551,�k�k��,6.9,��
2022/10/13,03:00,0.563,0.810,0.519,1.011,0.708,0.335,0.581,0.549,�k�k��,7.1,��
2022/10/13,03:10,0.561,0.810,0.522,1.013,0.707,0.332,0.582,0.551,�k�k��,7.1,��
2022/10/13,03:20,0.561,0.810,0.521,1.013,0.709,0.334,0.584,0.550,�k�k��,6.8,��
2022/10/13,03:30,0.560,0.809,0.521,1.013,0.708,0.332,0.582,0.551,�k�k��,6.3,��
2022/10/13,03:40,0.560,0.810,0.520,1.012,0.709,0.334,0.582,0.551,�k�k��,6.6,��
2022/10/13,03:50,0.561,0.812,0.518,1.010,0.708,0.333,0.582,0.550,�k��,6.1,��
2022/10/13,04:00,0.560,0.810,0.519,1.012,0.708,0.333,0.581,0.550,�k�k��,6.1,��
2022/10/13,04:10,0.561,0.810,0.520,1.011,0.706,0.334,0.582,0.550,�k�k��,6.2,��
2022/10/13,04:20,0.560,0.809,0.520,1.013,0.707,0.332,0.583,0.551,�k�k��,7.0,��
2022/10/13,04:30,0.562,0.812,0.521,1.013,0.708,0.333,0.581,0.551,�k�k��,7.6,��
2022/10/13,04:40,0.560,0.813,0.520,1.012,0.708,0.333,0.583,0.551,�k�k��,7.9,��
2022/10/13,04:50,0.562,0.808,0.520,1.012,0.707,0.333,0.581,0.551,�k�k��,7.2,��
2022/10/13,05:00,0.560,0.811,0.520,1.012,0.707,0.333,0.581,0.552,�k�k��,7.0,��
2022/10/13,05:10,0.562,0.812,0.520,1.012,0.709,0.333,0.582,0.551,�k�k��,6.2,��
2022/10/13,05:20,0.563,0.811,0.520,1.014,0.708,0.334,0.582,0.550,�k�k��,6.9,��
2022/10/13,05:30,0.561,0.812,0.520,1.013,0.709,0.334,0.583,0.551,�k�k��,7.1,��
2022/10/13,05:40,0.562,0.811,0.520,1.012,0.708,0.333,0.581,0.552,�k�k��,6.9,��
2022/10/13,05:50,0.559,0.809,0.521,1.011,0.708,0.335,0.581,0.551,�k�k��,6.8,��
2022/10/13,06:00,0.561,0.811,0.519,1.014,0.707,0.334,0.582,0.551,�k�k��,7.1,��
2022/10/13,06:10,0.559,0.810,0.521,1.013,0.708,0.333,0.581,0.550,�k�k��,7.5,��
2022/10/13,06:20,0.559,0.813,0.521,1.013,0.709,0.334,0.583,0.550,�k�k��,8.4,��
2022/10/13,06:30,0.562,0.811,0.521,1.016,0.708,0.332,0.583,0.552,�k��,8.0,��
2022/10/13,06:40,0.561,0.811,0.521,1.013,0.709,0.333,0.582,0.552,�k�k��,8.4,��
2022/10/13,06:50,0.561,0.813,0.521,1.013,0.708,0.333,0.580,0.550,�k�k��,8.0,��
2022/10/13,07:00,0.562,0.811,0.519,1.013,0.708,0.333,0.581,0.551,�k�k��,8.1,��
2022/10/13,07:10,0.563,0.811,0.521,1.013,0.710,0.333,0.581,0.549,�k�k��,6.9,��
2022/10/13,07:20,0.562,0.813,0.522,1.013,0.708,0.334,0.580,0.551,�k��,6.7,��
2022/10/13,07:30,0.561,0.812,0.522,1.013,0.708,0.333,0.580,0.551,�k��,7.2,��
2022/10/13,07:40,0.564,0.810,0.522,1.014,0.709,0.333,0.579,0.552,�k�k��,7.0,��
2022/10/13,07:50,0.564,0.810,0.521,1.011,0.710,0.334,0.581,0.552,�k�k��,6.7,��
2022/10/13,08:00,0.561,0.812,0.522,1.014,0.709,0.333,0.581,0.551,�k�k��,6.7,��
2022/10/13,08:10,0.561,0.808,0.522,1.015,0.709,0.334,0.581,0.551,�k�k��,6.7,��
2022/10/13,08:20,0.563,0.809,0.521,1.012,0.709,0.333,0.580,0.551,�k�k��,6.4,��
2022/10/13,08:30,0.562,0.810,0.524,1.012,0.707,0.332,0.580,0.551,�k�k��,6.5,��
2022/10/13,08:40,0.562,0.811,0.522,1.014,0.709,0.332,0.581,0.552,�k�k��,6.5,��
2022/10/13,08:50,0.561,0.809,0.522,1.013,0.708,0.331,0.581,0.552,�k�k��,6.7,��
2022/10/13,09:00,0.562,0.810,0.519,1.013,0.709,0.333,0.582,0.552,�k�k��,7.0,��
2022/10/13,09:10,0.562,0.809,0.522,1.015,0.707,0.331,0.580,0.550,�k�k��,7.0,��
2022/10/13,09:20,0.562,0.810,0.522,1.011,0.706,0.332,0.580,0.550,�k�k��,6.2,��
2022/10/13,09:30,0.563,0.809,0.520,1.014,0.707,0.332,0.580,0.551,�k�k��,6.7,��
2022/10/13,09:40,0.561,0.810,0.522,1.012,0.706,0.332,0.578,0.550,�k�k��,7.7,��
2022/10/13,09:50,0.562,0.807,0.522,1.015,0.709,0.333,0.580,0.550,�k�k��,7.0,�L
2022/10/13,10:00,0.562,0.811,0.521,1.014,0.709,0.333,0.580,0.550,�k�k��,7.4,�L
2022/10/13,10:10,0.562,0.807,0.520,1.014,0.707,0.333,0.579,0.551,�k�k��,7.1,��
2022/10/13,10:20,0.562,0.810,0.522,1.015,0.707,0.332,0.579,0.551,�k�k��,6.5,�L
2022/10/13,10:30,0.562,0.808,0.522,1.011,0.708,0.332,0.579,0.548,�k�k��,6.8,�L
2022/10/13,10:40,0.562,0.808,0.523,1.014,0.709,0.332,0.578,0.551,�k�k��,7.0,�L
2022/10/13,10:50,0.563,0.810,0.521,1.014,0.708,0.332,0.578,0.551,�k�k��,6.6,�L
2022/10/13,11:00,0.561,0.809,0.522,1.013,0.709,0.332,0.578,0.549,�k�k��,5.5,��
2022/10/13,11:10,0.561,0.810,0.521,1.013,0.707,0.332,0.579,0.550,�k�k��,6.2,��
2022/10/13,11:20,0.561,0.810,0.522,1.014,0.709,0.333,0.579,0.550,�k�k��,6.2,��
2022/10/13,11:30,0.563,0.811,0.523,1.012,0.709,0.332,0.579,0.549,�k�k��,5.4,��
2022/10/13,11:40,0.563,0.811,0.523,1.014,0.708,0.332,0.580,0.550,�k�k��,7.0,��
2022/10/13,11:50,0.564,0.810,0.521,1.014,0.706,0.332,0.579,0.551,�k�k��,6.5,��
2022/10/13,12:00,0.561,0.810,0.520,1.016,0.708,0.333,0.578,0.550,�k�k��,6.6,��
2022/10/13,12:10,0.562,0.811,0.522,1.014,0.708,0.331,0.579,0.551,�k�k��,6.3,��
2022/10/13,12:20,0.563,0.812,0.522,1.012,0.709,0.333,0.579,0.552,�k�k��,5.8,��
2022/10/13,12:30,0.561,0.811,0.522,1.012,0.707,0.332,0.580,0.550,�k�k��,6.4,��
2022/10/13,12:40,0.562,0.811,0.522,1.014,0.709,0.332,0.579,0.552,�k�k��,6.7,��
2022/10/13,12:50,0.563,0.811,0.521,1.015,0.709,0.333,0.579,0.552,�k�k��,5.6,��
2022/10/13,13:00,0.564,0.809,0.521,1.016,0.708,0.331,0.580,0.551,�k�k��,5.3,��
2022/10/13,13:10,0.564,0.807,0.522,1.015,0.709,0.334,0.579,0.551,�k�k��,4.8,��
2022/10/13,13:20,0.563,0.810,0.522,1.015,0.708,0.332,0.581,0.552,�k��,4.9,��
2022/10/13,13:30,0.562,0.811,0.522,1.015,0.705,0.333,0.580,0.551,�k��,5.3,��
2022/10/13,13:40,0.565,0.810,0.523,1.016,0.709,0.332,0.579,0.552,�k�k��,5.9,��
2022/10/13,13:50,0.562,0.809,0.522,1.017,0.709,0.333,0.580,0.550,�k�k��,5.1,��
2022/10/13,14:00,0.563,0.810,0.521,1.013,0.709,0.333,0.579,0.551,�k�k��,5.0,��
2022/10/13,14:10,0.562,0.811,0.522,1.016,0.708,0.334,0.579,0.553,�k�k��,5.8,��
2022/10/13,14:20,0.563,0.811,0.521,1.013,0.709,0.334,0.579,0.551,�k�k��,5.8,��
2022/10/13,14:30,0.563,0.812,0.522,1.014,0.707,0.334,0.580,0.552,�k�k��,6.3,��
2022/10/13,14:40,0.563,0.811,0.523,1.014,0.709,0.332,0.579,0.552,�k�k��,4.6,��
2022/10/13,14:50,0.563,0.812,0.521,1.014,0.707,0.334,0.580,0.552,�k�k��,4.3,��
2022/10/13,15:00,0.564,0.812,0.522,1.014,0.710,0.333,0.579,0.552,�k�k��,5.0,��
2022/10/13,15:10,0.562,0.810,0.523,1.016,0.709,0.333,0.580,0.551,�k�k��,5.6,��
2022/10/13,15:20,0.564,0.811,0.522,1.015,0.708,0.332,0.579,0.552,�k�k��,5.7,��
2022/10/13,15:30,0.563,0.812,0.520,1.013,0.709,0.333,0.581,0.552,�k�k��,4.6,��
2022/10/13,15:40,0.563,0.812,0.523,1.015,0.710,0.334,0.580,0.552,�k�k��,4.4,��
2022/10/13,15:50,0.561,0.812,0.522,1.013,0.707,0.333,0.578,0.552,�k�k��,4.6,��
2022/10/13,16:00,0.564,0.812,0.524,1.016,0.710,0.335,0.581,0.551,�k�k��,5.0,��
2022/10/13,16:10,0.564,0.812,0.521,1.016,0.709,0.335,0.580,0.554,�k�k��,4.0,��
2022/10/13,16:20,0.561,0.817,0.522,1.013,0.710,0.334,0.580,0.552,�k�k��,4.2,��
2022/10/13,16:30,0.563,0.813,0.522,1.014,0.711,0.332,0.582,0.553,�k�k��,3.8,��
2022/10/13,16:40,0.564,0.814,0.521,1.016,0.711,0.333,0.580,0.553,�k�k��,3.9,��
2022/10/13,16:50,0.564,0.812,0.523,1.016,0.710,0.333,0.580,0.552,�k�k��,3.5,��
2022/10/13,17:00,0.564,0.814,0.521,1.015,0.711,0.334,0.580,0.554,�k�k��,4.0,��
2022/10/13,17:10,0.563,0.812,0.523,1.014,0.710,0.333,0.580,0.554,�k,3.4,��
2022/10/13,17:20,0.563,0.814,0.522,1.014,0.710,0.333,0.579,0.552,�k�k��,4.7,��
2022/10/13,17:30,0.564,0.813,0.522,1.016,0.710,0.333,0.581,0.551,�k�k��,5.7,��
2022/10/13,17:40,0.562,0.815,0.521,1.015,0.711,0.333,0.580,0.552,�k,5.5,��
2022/10/13,17:50,0.564,0.813,0.521,1.015,0.713,0.333,0.580,0.552,�k,4.2,��
2022/10/13,18:00,0.564,0.815,0.522,1.014,0.710,0.335,0.580,0.551,�k�k��,3.7,��
2022/10/13,18:10,0.563,0.813,0.523,1.018,0.707,0.334,0.580,0.552,�k,3.3,��
2022/10/13,18:20,0.565,0.814,0.522,1.014,0.710,0.333,0.582,0.550,�k,3.3,��
2022/10/13,18:30,0.564,0.812,0.521,1.015,0.709,0.334,0.581,0.554,�k,3.4,��
2022/10/13,18:40,0.564,0.814,0.521,1.016,0.711,0.334,0.581,0.551,�k�k��,3.1,��
2022/10/13,18:50,0.562,0.813,0.521,1.015,0.709,0.333,0.579,0.552,�k�k��,3.4,��
2022/10/13,19:00,0.562,0.813,0.521,1.013,0.709,0.332,0.580,0.553,�k,3.5,��
2022/10/13,19:10,0.564,0.813,0.522,1.016,0.710,0.334,0.582,0.552,�k,3.2,��
2022/10/13,19:20,0.563,0.813,0.522,1.015,0.710,0.334,0.581,0.552,�k�k��,2.8,��
2022/10/13,19:30,0.564,0.813,0.522,1.016,0.711,0.331,0.580,0.553,�k�k��,3.6,��
2022/10/13,19:40,0.565,0.814,0.522,1.015,0.711,0.335,0.580,0.550,�k,3.2,��
2022/10/13,19:50,0.564,0.812,0.520,1.017,0.710,0.333,0.582,0.552,�k,3.1,��
2022/10/13,20:00,0.564,0.811,0.522,1.016,0.712,0.333,0.580,0.553,�k�k��,3.2,��
2022/10/13,20:10,0.565,0.812,0.522,1.015,0.710,0.334,0.582,0.550,�k,3.5,��
2022/10/13,20:20,0.563,0.813,0.523,1.015,0.710,0.333,0.583,0.551,�k�k��,4.1,��
2022/10/13,20:30,0.564,0.813,0.523,1.013,0.710,0.334,0.582,0.553,�k�k��,4.9,��
2022/10/13,20:40,0.565,0.813,0.522,1.018,0.711,0.334,0.583,0.553,�k,4.8,��
2022/10/13,20:50,0.561,0.816,0.523,1.014,0.710,0.334,0.582,0.551,�k,4.3,��
2022/10/13,21:00,0.564,0.813,0.522,1.017,0.711,0.335,0.582,0.551,�k�k��,5.4,��
2022/10/13,21:10,0.564,0.814,0.523,1.014,0.710,0.334,0.580,0.552,�k,5.3,��
2022/10/13,21:20,0.563,0.813,0.523,1.017,0.711,0.334,0.580,0.552,�k,5.5,��
2022/10/13,21:30,0.564,0.811,0.523,1.015,0.711,0.334,0.583,0.552,�k,5.3,��
2022/10/13,21:40,0.564,0.812,0.522,1.016,0.710,0.335,0.582,0.552,�k,5.8,��
2022/10/13,21:50,0.565,0.814,0.521,1.017,0.710,0.335,0.581,0.549,�k,6.4,��
2022/10/13,22:00,0.563,0.814,0.522,1.016,0.710,0.334,0.581,0.552,�k,6.1,��
2022/10/13,22:10,0.564,0.814,0.522,1.016,0.711,0.335,0.581,0.552,�k,6.2,��
2022/10/13,22:20,0.563,0.811,0.522,1.017,0.710,0.334,0.581,0.552,�k,6.0,��
2022/10/13,22:30,0.564,0.812,0.523,1.015,0.709,0.336,0.582,0.551,�k,6.1,��
2022/10/13,22:40,0.566,0.814,0.523,1.017,0.710,0.334,0.583,0.552,�k,5.3,��
2022/10/13,22:50,0.563,0.812,0.524,1.013,0.711,0.333,0.582,0.551,�k,4.9,��
2022/10/13,23:00,0.564,0.813,0.522,1.016,0.710,0.335,0.583,0.552,�k,4.7,��
2022/10/13,23:10,0.563,0.812,0.522,1.016,0.711,0.334,0.584,0.552,�k�k��,3.5,��
2022/10/13,23:20,0.564,0.812,0.522,1.018,0.710,0.334,0.582,0.553,�k,3.6,��
2022/10/13,23:30,0.562,0.814,0.522,1.016,0.711,0.333,0.584,0.553,�k,3.5,��
2022/10/13,23:40,0.564,0.816,0.522,1.019,0.712,0.334,0.583,0.551,�k�k��,3.9,��
2022/10/13,23:50,0.563,0.813,0.522,1.017,0.711,0.333,0.582,0.551,�k,3.6,��
